AFR614 LFMN-LFLL

Flight info

Callsign AFR614
Flight time 0h 34m
Altitude 22000
Route BODRU DCT KOTIT/N0371F180 Y42 LASUR Z42 PINED
Aircraft A320/M-SDE3FGHIRWY/LB1

Departure

Time 2026-05-07 20:00
Airport Nice-Côte d'Azur Airport (LFMN)

Arrival

Time 2026-05-07 20:34
Airport Lyon Saint-Exupéry Airport (LFLL)
Time Latitude Longitude Altitude Speed Heading
2026-05-07 19:27 43.65994 7.20719 21 ft 0 kts 259°
2026-05-07 19:28 43.66046 7.20710 21 ft 0 kts 290°
2026-05-07 19:31 43.65956 7.20726 21 ft 0 kts 281°
2026-05-07 19:49 43.65956 7.20727 21 ft 2 kts 281°
2026-05-07 19:49 43.65951 7.20761 21 ft 4 kts 281°
2026-05-07 19:50 43.65947 7.20792 21 ft 4 kts 261°
2026-05-07 19:50 43.65958 7.20818 21 ft 4 kts 197°
2026-05-07 19:50 43.65984 7.20821 21 ft 4 kts 173°
2026-05-07 19:50 43.66010 7.20816 21 ft 4 kts 171°
2026-05-07 19:51 43.66016 7.20815 21 ft 0 kts 171°
2026-05-07 19:53 43.66003 7.20817 21 ft 8 kts 172°
2026-05-07 19:54 43.65904 7.20839 21 ft 15 kts 171°
2026-05-07 19:54 43.65818 7.20858 21 ft 12 kts 171°
2026-05-07 19:54 43.65740 7.20875 21 ft 11 kts 171°
2026-05-07 19:54 43.65701 7.20884 21 ft 0 kts 171°
2026-05-07 19:56 43.65693 7.20886 21 ft 7 kts 171°
2026-05-07 19:56 43.65577 7.20913 21 ft 24 kts 172°
2026-05-07 19:56 43.65413 7.20948 21 ft 18 kts 170°
2026-05-07 19:57 43.65302 7.20888 21 ft 19 kts 226°
2026-05-07 19:57 43.65203 7.20752 21 ft 21 kts 225°
2026-05-07 19:57 43.65106 7.20619 21 ft 20 kts 225°
2026-05-07 19:57 43.65004 7.20477 22 ft 22 kts 225°
2026-05-07 19:58 43.64906 7.20342 22 ft 16 kts 225°
2026-05-07 19:58 43.64840 7.20253 21 ft 11 kts 222°
2026-05-07 19:58 43.64783 7.20187 22 ft 10 kts 207°
2026-05-07 19:58 43.64749 7.20184 22 ft 4 kts 167°
2026-05-07 19:59 43.64707 7.20265 23 ft 16 kts 93°
2026-05-07 19:59 43.64752 7.20356 23 ft 11 kts 46°
2026-05-07 19:59 43.64994 7.20691 23 ft 96 kts 44°
2026-05-07 19:59 43.65665 7.21622 75 ft 169 kts 46°
2026-05-07 20:00 43.66555 7.22907 649 ft 197 kts 50°
2026-05-07 20:00 43.67082 7.24703 1466 ft 214 kts 92°
2026-05-07 20:00 43.66589 7.26597 2256 ft 219 kts 130°
2026-05-07 20:00 43.65481 7.28052 3119 ft 221 kts 142°
2026-05-07 20:01 43.64245 7.29341 3990 ft 224 kts 144°
2026-05-07 20:01 43.62993 7.30649 4833 ft 228 kts 143°
2026-05-07 20:01 43.61629 7.31763 5620 ft 231 kts 167°
2026-05-07 20:01 43.60033 7.31743 6392 ft 233 kts 198°
2026-05-07 20:02 43.58601 7.30582 6872 ft 253 kts 226°
2026-05-07 20:02 43.57683 7.28416 7266 ft 275 kts 255°
2026-05-07 20:02 43.57313 7.25781 7938 ft 284 kts 255°
2026-05-07 20:02 43.56412 7.23352 8694 ft 289 kts 229°
2026-05-07 20:03 43.54806 7.21688 9460 ft 294 kts 203°
2026-05-07 20:03 43.52808 7.21064 10183 ft 300 kts 186°
2026-05-07 20:03 43.50657 7.20718 10402 ft 323 kts 194°
2026-05-07 20:03 43.48569 7.19375 10604 ft 343 kts 217°
2026-05-07 20:04 43.46960 7.16913 11095 ft 352 kts 239°
2026-05-07 20:04 43.46118 7.13744 11687 ft 357 kts 261°
2026-05-07 20:04 43.46171 7.10326 12273 ft 361 kts 282°
2026-05-07 20:04 43.47119 7.07118 12799 ft 366 kts 302°
2026-05-07 20:05 43.48827 7.04527 13077 ft 370 kts 323°
2026-05-07 20:05 43.51086 7.02815 13633 ft 373 kts 334°
2026-05-07 20:05 43.53442 7.01288 14168 ft 376 kts 334°
2026-05-07 20:05 43.55822 6.99756 14672 ft 379 kts 334°
2026-05-07 20:06 43.58220 6.98212 15154 ft 382 kts 334°
2026-05-07 20:06 43.60636 6.96653 15616 ft 385 kts 334°
2026-05-07 20:06 43.63075 6.95078 16057 ft 388 kts 334°
2026-05-07 20:06 43.65528 6.93487 16476 ft 391 kts 334°
2026-05-07 20:07 43.68002 6.91877 16881 ft 394 kts 334°
2026-05-07 20:07 43.70490 6.90255 17266 ft 397 kts 334°
2026-05-07 20:07 43.72992 6.88621 17635 ft 399 kts 334°
2026-05-07 20:07 43.75514 6.86974 17934 ft 402 kts 334°
2026-05-07 20:08 43.78056 6.85314 18004 ft 409 kts 334°
2026-05-07 20:08 43.80656 6.83616 18010 ft 417 kts 334°
2026-05-07 20:08 43.83283 6.81901 18009 ft 419 kts 334°
2026-05-07 20:08 43.85919 6.80178 18009 ft 419 kts 334°
2026-05-07 20:09 43.88556 6.78450 18009 ft 419 kts 334°
2026-05-07 20:09 43.91191 6.76718 18009 ft 419 kts 334°
2026-05-07 20:09 43.93744 6.74766 18007 ft 419 kts 325°
2026-05-07 20:10 43.98058 6.69363 18009 ft 418 kts 315°
2026-05-07 20:10 44.00124 6.66511 18009 ft 418 kts 315°
2026-05-07 20:10 44.02187 6.63664 18009 ft 418 kts 315°
2026-05-07 20:10 44.04256 6.60816 18010 ft 418 kts 315°
2026-05-07 20:11 44.06320 6.57971 18011 ft 418 kts 315°
2026-05-07 20:11 44.08387 6.55116 18011 ft 418 kts 315°
2026-05-07 20:11 44.10421 6.52296 18012 ft 419 kts 315°
2026-05-07 20:11 44.12511 6.49395 18013 ft 419 kts 315°
2026-05-07 20:12 44.14570 6.46536 18013 ft 419 kts 315°
2026-05-07 20:12 44.16633 6.43673 18015 ft 419 kts 315°
2026-05-07 20:12 44.18667 6.40845 18016 ft 419 kts 314°
2026-05-07 20:12 44.20717 6.37963 18015 ft 418 kts 312°
2026-05-07 20:13 44.22571 6.34841 18015 ft 418 kts 308°
2026-05-07 20:13 44.24395 6.31683 18016 ft 418 kts 308°
2026-05-07 20:13 44.26222 6.28525 18016 ft 418 kts 308°
2026-05-07 20:13 44.28050 6.25368 18016 ft 418 kts 308°
2026-05-07 20:14 44.29876 6.22207 18017 ft 418 kts 308°
2026-05-07 20:14 44.31700 6.19047 18017 ft 418 kts 308°
2026-05-07 20:14 44.33529 6.15880 18018 ft 418 kts 308°
2026-05-07 20:14 44.35355 6.12715 18020 ft 418 kts 308°
2026-05-07 20:15 44.37178 6.09547 18021 ft 418 kts 308°
2026-05-07 20:15 44.38997 6.06375 18021 ft 418 kts 308°
2026-05-07 20:15 44.40818 6.03194 18022 ft 418 kts 308°
2026-05-07 20:15 44.42635 6.00018 18022 ft 418 kts 308°
2026-05-07 20:16 44.44453 5.96841 18023 ft 418 kts 308°
2026-05-07 20:16 44.46275 5.93658 18023 ft 418 kts 308°
2026-05-07 20:16 44.48094 5.90477 18023 ft 418 kts 308°
2026-05-07 20:16 44.49909 5.87296 18023 ft 418 kts 308°
2026-05-07 20:17 44.51725 5.84113 18023 ft 418 kts 308°
2026-05-07 20:17 44.53539 5.80926 18023 ft 418 kts 308°
2026-05-07 20:17 44.55355 5.77733 18024 ft 418 kts 308°
2026-05-07 20:17 44.57168 5.74541 18024 ft 418 kts 308°
2026-05-07 20:18 44.58978 5.71347 18023 ft 418 kts 308°
2026-05-07 20:18 44.60787 5.68149 18023 ft 418 kts 308°
2026-05-07 20:18 44.62596 5.64946 18023 ft 418 kts 308°
2026-05-07 20:18 44.64511 5.61878 18017 ft 419 kts 316°
2026-05-07 20:19 44.66822 5.59402 18018 ft 419 kts 328°
2026-05-07 20:19 44.69452 5.57657 18018 ft 419 kts 341°
2026-05-07 20:19 44.72289 5.56716 18018 ft 419 kts 352°
2026-05-07 20:19 44.75185 5.56234 18020 ft 420 kts 353°
2026-05-07 20:20 44.78085 5.55758 18019 ft 420 kts 353°
2026-05-07 20:20 44.80988 5.55279 18019 ft 420 kts 353°
2026-05-07 20:20 44.83890 5.54799 18002 ft 418 kts 353°
2026-05-07 20:20 44.86734 5.54327 17750 ft 405 kts 353°
2026-05-07 20:21 44.89498 5.53866 17501 ft 396 kts 353°
2026-05-07 20:21 44.92225 5.53410 17246 ft 392 kts 353°
2026-05-07 20:21 44.94915 5.52959 16773 ft 387 kts 353°
2026-05-07 20:21 44.97584 5.52513 16231 ft 385 kts 353°
2026-05-07 20:22 45.00237 5.52121 15694 ft 383 kts 357°
2026-05-07 20:22 45.02889 5.52081 15171 ft 380 kts 359°
2026-05-07 20:22 45.05522 5.52061 14651 ft 377 kts 359°
2026-05-07 20:22 45.08131 5.52041 14134 ft 374 kts 359°
2026-05-07 20:23 45.10722 5.52027 13617 ft 371 kts 359°
2026-05-07 20:23 45.13288 5.52013 13144 ft 366 kts 359°
2026-05-07 20:23 45.15824 5.51995 12768 ft 364 kts 359°
2026-05-07 20:23 45.18379 5.51969 12066 ft 366 kts 359°
2026-05-07 20:24 45.20904 5.51939 11614 ft 360 kts 359°
2026-05-07 20:24 45.23399 5.51908 11126 ft 356 kts 359°
2026-05-07 20:24 45.25862 5.51875 10646 ft 352 kts 359°
2026-05-07 20:24 45.28261 5.51651 10445 ft 339 kts 350°
2026-05-07 20:25 45.30507 5.50887 10317 ft 325 kts 344°
2026-05-07 20:25 45.32622 5.50079 10193 ft 313 kts 343°
2026-05-07 20:25 45.34575 5.48865 9981 ft 303 kts 326°
2026-05-07 20:25 45.36149 5.46935 9806 ft 300 kts 310°
2026-05-07 20:26 45.37264 5.44453 9386 ft 298 kts 292°
2026-05-07 20:26 45.38038 5.41687 8964 ft 297 kts 291°
2026-05-07 20:26 45.38797 5.38965 8549 ft 295 kts 291°
2026-05-07 20:26 45.39556 5.36261 8167 ft 293 kts 291°
2026-05-07 20:27 45.40312 5.33578 7741 ft 292 kts 291°
2026-05-07 20:27 45.41065 5.30917 7355 ft 289 kts 291°
2026-05-07 20:27 45.41812 5.28264 6957 ft 287 kts 291°
2026-05-07 20:27 45.42539 5.25673 6543 ft 285 kts 291°
2026-05-07 20:28 45.43279 5.23027 6136 ft 283 kts 291°
2026-05-07 20:28 45.43995 5.20472 5749 ft 280 kts 291°
2026-05-07 20:28 45.44706 5.17928 5533 ft 271 kts 291°
2026-05-07 20:28 45.45534 5.15604 5431 ft 257 kts 305°
2026-05-07 20:29 45.46732 5.13814 5350 ft 244 kts 322°
2026-05-07 20:29 45.48177 5.12618 5111 ft 241 kts 338°
2026-05-07 20:29 45.49801 5.12054 4780 ft 241 kts 354°
2026-05-07 20:29 45.51465 5.11859 4608 ft 234 kts 355°
2026-05-07 20:30 45.53061 5.11665 4332 ft 233 kts 355°
2026-05-07 20:30 45.54672 5.11470 4030 ft 232 kts 355°
2026-05-07 20:30 45.56281 5.11275 3722 ft 232 kts 355°
2026-05-07 20:30 45.57889 5.11081 3410 ft 224 kts 354°
2026-05-07 20:31 45.59399 5.10898 3122 ft 217 kts 354°
2026-05-07 20:31 45.60880 5.10719 2850 ft 209 kts 354°
2026-05-07 20:31 45.62285 5.10549 2579 ft 197 kts 354°
2026-05-07 20:31 45.63587 5.10391 2326 ft 177 kts 354°
2026-05-07 20:32 45.64744 5.10251 2099 ft 159 kts 354°
2026-05-07 20:32 45.65803 5.10124 1890 ft 148 kts 355°
2026-05-07 20:32 45.66814 5.09997 1686 ft 144 kts 353°
2026-05-07 20:32 45.67806 5.09852 1487 ft 143 kts 356°
2026-05-07 20:33 45.68791 5.09746 1326 ft 142 kts 353°
2026-05-07 20:33 45.69771 5.09630 1162 ft 142 kts 355°
2026-05-07 20:33 45.70745 5.09515 975 ft 140 kts 353°
2026-05-07 20:33 45.71717 5.09403 805 ft 137 kts 354°
2026-05-07 20:34 45.72521 5.09307 783 ft 79 kts 355°
2026-05-07 20:34 45.72775 5.09277 778 ft 7 kts 354°
2026-05-07 20:34 45.72925 5.09253 776 ft 18 kts 345°
2026-05-07 20:34 45.72978 5.09134 775 ft 14 kts 266°
2026-05-07 20:35 45.72974 5.09096 776 ft 0 kts 263°
2026-05-07 20:35 45.72973 5.09080 777 ft 7 kts 264°
2026-05-07 20:35 45.72965 5.08951 783 ft 14 kts 265°
2026-05-07 20:36 45.72958 5.08821 786 ft 13 kts 265°
2026-05-07 20:36 45.72949 5.08691 785 ft 14 kts 261°
2026-05-07 20:36 45.72940 5.08537 784 ft 15 kts 268°
2026-05-07 20:36 45.72914 5.08396 783 ft 15 kts 230°
2026-05-07 20:37 45.72819 5.08352 784 ft 15 kts 175°
2026-05-07 20:37 45.72709 5.08368 785 ft 16 kts 175°
2026-05-07 20:37 45.72591 5.08381 787 ft 18 kts 175°
2026-05-07 20:37 45.72475 5.08396 788 ft 17 kts 175°
2026-05-07 20:38 45.72354 5.08410 790 ft 18 kts 176°
2026-05-07 20:38 45.72225 5.08424 791 ft 19 kts 173°
2026-05-07 20:38 45.72094 5.08444 793 ft 17 kts 175°
2026-05-07 20:38 45.71984 5.08451 794 ft 15 kts 195°
2026-05-07 20:39 45.71955 5.08370 794 ft 15 kts 279°
2026-05-07 20:39 45.71948 5.08226 794 ft 14 kts 217°
2026-05-07 20:39 45.71866 5.08189 795 ft 7 kts 195°
2026-05-07 20:39 45.71834 5.08165 795 ft 4 kts 237°
2026-05-07 20:40 45.71838 5.08136 795 ft 3 kts 300°
2026-05-07 20:40 45.71848 5.08114 795 ft 2 kts 306°
2026-05-07 20:40 45.71864 5.08086 795 ft 7 kts 310°
2026-05-07 20:40 45.71875 5.08069 795 ft 0 kts 310°